Location: ??? ????
(38.0580°N, 23.1536°E)
Time: 22:58:59
(UTC+00:00)

BREEZE-M DEB (TANK) - Pass Details

Date: 13 December 2025
Orbit: 307 x 15895 km, 49.3° (Epoch: 14 January)

Event Time Altitude Azimuth Distance (km) Brightness Sun altitude
Rises 15:37:11 0° 310° (NW) 2,296 5.9 -5.9°
Maximum altitude 15:41:52 26° 28° (NNE) 1,571 4.2 -6.7°
Drops below altitude 10° 15:49:08 10° 82° (E) 4,347 6.2 -8.1°
Enters shadow 15:51:51 - 87° (E) 5,482 6.8 -8.5°
